Location: Brno
(49.2000°N, 16.6330°E)
Time: 06:48:35
(UTC+02:00)

Vanguard 3 - Visible Passes

Search period start: 26 July 2021 00:00
Search period end: 05 August 2021 00:00
Orbit: 508 x 3261 km, 33.4° (Epoch: 25 July)

Date Brightness Start Highest point End Pass type
(mag) Time Alt. Az. Time Alt. Az. Time Alt. Az.
26 Jul 10.0 00:29:35 10° W 00:46:34 39° SSW 00:55:03 23° SSE visible
26 Jul 10.2 02:48:04 10° W 02:58:23 19° SW 02:59:25 19° SW visible
26 Jul 10.3 20:58:50 10° SW 21:16:07 45° SSE 21:32:48 10° ESE visible
26 Jul 10.1 23:12:42 10° WSW 23:30:47 45° S 23:43:18 16° SE visible
27 Jul 10.0 01:29:17 10° W 01:43:58 30° SW 01:47:42 27° SSW visible
27 Jul 10.2 21:56:34 10° WSW 22:14:32 48° S 22:30:50 10° ESE visible
28 Jul 10.1 00:11:42 10° W 00:28:47 39° SSW 00:36:15 27° SSE visible
28 Jul 10.4 02:30:26 10° W 02:40:40 19° SW 02:40:40 19° SW visible
28 Jul 10.2 22:54:58 10° WSW 23:12:55 45° SSW 23:24:58 20° SE visible
29 Jul 10.2 01:11:28 10° W 01:26:12 29° SW 01:29:24 27° SSW visible
29 Jul 10.3 21:39:03 10° WSW 21:56:36 48° S 22:13:34 10° ESE visible
29 Jul 10.1 23:53:57 10° W 00:10:55 38° SSW 00:18:13 28° SSE visible
30 Jul 10.6 02:12:57 10° W 02:22:40 17° SW 02:22:40 17° SW visible
30 Jul 10.3 22:37:23 10° WSW 22:54:59 44° SSW 23:07:07 21° SE visible
31 Jul 10.3 00:53:46 10° W 01:08:21 27° SW 01:11:34 26° SSW visible
31 Jul 10.3 21:21:40 10° WSW 21:38:39 48° S 21:56:05 10° ESE visible
31 Jul 10.3 23:36:21 10° W 23:52:59 36° SSW 00:00:32 27° S visible
01 Aug 10.8 01:55:44 10° W 02:04:59 16° SW 02:04:59 16° SW visible
01 Aug 10.4 22:19:58 10° W 22:37:01 43° SSW 22:49:33 20° SE visible
02 Aug 10.5 00:36:17 10° W 00:50:25 26° SW 00:54:01 24° SSW visible
02 Aug 10.4 21:04:27 10° WSW 21:20:42 47° S 21:38:33 10° ESE visible
02 Aug 10.4 23:18:55 10° W 23:35:00 34° SSW 23:43:05 25° S visible
03 Aug 10.9 01:38:55 10° WSW 01:47:14 14° SW 01:47:33 14° SW visible
03 Aug 10.4 22:02:42 10° W 22:19:02 41° SSW 22:32:13 19° SE visible
04 Aug 10.6 00:18:59 10° W 00:32:27 24° SW 00:36:41 22° SSW visible
04 Aug 10.4 20:47:24 10° WSW 21:02:47 45° S 21:20:46 10° SE visible
04 Aug 10.5 23:01:39 10° W 23:17:00 32° SSW 23:25:51 23° S visible
